Pecos, TX

7:07 AM CDT on July 23, 2017 (GMT -0500)
Pecos Municipal

Weather History for KPEQ - November, 2010

Change the Weather History Date:

Thursday, November 11, 2010

  Actual Average Record
Temperature  
Mean Temperature 58 °F -  
Max Temperature 80 °F 71 °F 87 °F (1964)
Min Temperature 36 °F 36 °F 17 °F (1950)
Degree Days  
Heating Degree Days 7    
Growing Degree Days 8 (Base 50)    
Moisture  
Dew Point 36 °F    
Average Humidity 47    
Maximum Humidity 72    
Minimum Humidity 17    
Precipitation  
Precipitation 0.00 in - - ()
Sea Level Pressure  
Sea Level Pressure 29.97 in    
Wind  
Wind Speed 4 mph (NNE)    
Max Wind Speed 16 mph    
Max Gust Speed 23 mph    
Visibility 10 miles    
Events      
Averages and records for this station are not official NWS values.
T = Trace of Precipitation, MM = Missing Value Source: NWS Daily Summary

Daily Weather History Graph

Daily Weather History Graph

Search for Another Location

Airport or City:

Trip Planner

Search our weather history database for the weather conditions in past years. The results will help you decide how hot, cold, wet, or windy it might be!

Date:

Astronomy

Nov. 11, 2010 Rise Set
Actual Time 7:18 AM CST 5:57 PM CST
Civil Twilight 6:52 AM CST 6:23 PM CST
Nautical Twilight 6:23 AM CST 6:52 PM CST
Astronomical Twilight 5:54 AM CST 7:20 PM CST
Moon 12:16 PM CST (11/11) 11:06 PM CST (11/11)
Length of Visible Light 11h 30m
Length of Day
10h 39m
Waxing Crescent, 32% of the Moon is Illuminated
Nov 11
Waxing Crescent
Nov 13
First Quarter
Nov 21
Full
Nov 28
Last Quarter
Dec 5
New

Hourly Weather History & Observations

Time (CST) Temp. Windchill Dew Point Humidity Pressure Visibility Wind Dir Wind Speed Gust Speed Precip Events Conditions
12:05 AM 48.0 °F - 29.3 °F 48% 29.95 in 10.0 mi SW 3.5 mph - N/A   Clear
12:25 AM 46.9 °F - 28.0 °F 48% 29.94 in 10.0 mi Calm Calm - N/A   Clear
1:05 AM 44.4 °F - 26.2 °F 49% 29.94 in 10.0 mi Calm Calm - N/A   Clear
1:25 AM 44.6 °F - 27.1 °F 50% 29.93 in 10.0 mi Calm Calm - N/A   Clear
1:45 AM 45.9 °F - 26.6 °F 47% 29.93 in 10.0 mi Calm Calm - N/A   Clear
2:05 AM 41.9 °F - 24.1 °F 49% 29.93 in 10.0 mi Calm Calm - N/A   Clear
2:25 AM 41.7 °F - 25.2 °F 52% 29.93 in 10.0 mi Calm Calm - N/A   Clear
2:45 AM 41.0 °F 38.0 °F 25.2 °F 53% 29.93 in 10.0 mi NNW 4.6 mph - N/A   Clear
3:05 AM 40.5 °F 37.3 °F 26.4 °F 57% 29.93 in 10.0 mi WNW 4.6 mph - N/A   Clear
3:25 AM 40.3 °F 38.2 °F 25.7 °F 56% 29.93 in 10.0 mi WNW 3.5 mph - N/A   Clear
3:45 AM 39.4 °F 36.1 °F 24.4 °F 55% 29.93 in 10.0 mi WNW 4.6 mph - N/A   Clear
4:05 AM 39.2 °F 35.0 °F 25.7 °F 58% 29.93 in 10.0 mi NW 5.8 mph - N/A   Clear
4:25 AM 38.7 °F 35.2 °F 26.1 °F 61% 29.93 in 10.0 mi NW 4.6 mph - N/A   Clear
4:45 AM 38.7 °F 33.6 °F 25.7 °F 60% 29.94 in 10.0 mi NNW 6.9 mph - N/A   Clear
5:05 AM 39.6 °F 36.3 °F 27.1 °F 61% 29.95 in 10.0 mi NW 4.6 mph - N/A   Clear
5:25 AM 38.3 °F 34.8 °F 27.0 °F 64% 29.95 in 10.0 mi NW 4.6 mph - N/A   Clear
5:45 AM 37.9 °F 32.7 °F 27.5 °F 66% 29.96 in 10.0 mi WNW 6.9 mph - N/A   Clear
6:05 AM 38.1 °F 33.7 °F 29.7 °F 72% 29.97 in 10.0 mi NW 5.8 mph - N/A   Clear
6:25 AM 39.4 °F 34.5 °F 29.5 °F 68% 29.98 in 10.0 mi NW 6.9 mph - N/A   Clear
6:45 AM 38.8 °F 36.5 °F 28.6 °F 67% 29.99 in 10.0 mi WNW 3.5 mph - N/A   Clear
7:05 AM 37.4 °F - 28.0 °F 69% 29.99 in 10.0 mi Calm Calm - N/A   Clear
7:25 AM 36.7 °F 32.9 °F 27.3 °F 69% 30.00 in 10.0 mi West 4.6 mph - N/A   Clear
7:45 AM 37.6 °F - 27.1 °F 66% 30.01 in 10.0 mi Calm Calm - N/A   Clear
8:05 AM 39.7 °F - 27.3 °F 61% 30.02 in 10.0 mi Calm Calm - N/A   Clear
8:25 AM 43.0 °F - 28.6 °F 57% 30.02 in 10.0 mi Calm Calm - N/A   Clear
8:45 AM 45.0 °F - 29.5 °F 55% 30.03 in 10.0 mi Calm Calm - N/A   Clear
9:25 AM 51.6 °F - 35.6 °F 54% 30.04 in 10.0 mi WSW 3.5 mph - N/A   Clear
9:45 AM 54.9 °F - 39.4 °F 56% 30.05 in 10.0 mi Calm Calm - N/A   Clear
10:05 AM 57.0 °F - 37.9 °F 49% 30.05 in 10.0 mi Calm Calm - N/A   Clear
10:25 AM 59.2 °F - 37.9 °F 45% 30.05 in 10.0 mi Calm Calm - N/A   Clear
10:45 AM 62.2 °F - 37.6 °F 40% 30.05 in 10.0 mi Calm Calm - N/A   Clear
11:05 AM 63.7 °F - 37.6 °F 38% 30.05 in 10.0 mi Calm Calm - N/A   Clear
11:25 AM 66.6 °F - 36.7 °F 33% 30.04 in 10.0 mi North 3.5 mph - N/A   Clear
11:45 AM 67.8 °F - 36.0 °F 31% 30.04 in 10.0 mi NNE 3.5 mph - N/A   Clear
12:05 PM 70.2 °F - 34.5 °F 27% 30.03 in 10.0 mi East 5.8 mph - N/A   Clear
12:25 PM 73.0 °F - 32.4 °F 22% 30.02 in 10.0 mi East 3.5 mph - N/A   Clear
12:45 PM 74.8 °F - 33.1 °F 22% 30.00 in 10.0 mi NE 3.5 mph - N/A   Clear
1:05 PM 76.8 °F - 33.4 °F 21% 30.00 in 10.0 mi ENE 5.8 mph - N/A   Clear
1:25 PM 77.4 °F - 33.1 °F 20% 29.99 in 10.0 mi Calm Calm - N/A   Clear
1:45 PM 78.4 °F - 30.6 °F 17% 29.98 in 10.0 mi North 6.9 mph - N/A   Clear
2:05 PM 79.2 °F - 30.6 °F 17% 29.97 in 10.0 mi NE 8.1 mph - N/A   Clear
2:25 PM 79.7 °F - 33.8 °F 19% 29.96 in 10.0 mi NE 10.4 mph - N/A   Clear
2:45 PM 79.7 °F - 35.4 °F 20% 29.96 in 10.0 mi East 8.1 mph - N/A   Clear
3:05 PM 80.4 °F - 37.0 °F 21% 29.95 in 10.0 mi ENE 8.1 mph - N/A   Clear
3:25 PM 79.9 °F - 38.1 °F 22% 29.95 in 10.0 mi NNE 5.8 mph - N/A   Clear
3:45 PM 80.4 °F - 41.4 °F 25% 29.95 in 10.0 mi NNE 5.8 mph - N/A   Clear
4:25 PM 79.7 °F - 49.1 °F 34% 29.94 in 10.0 mi ENE 12.7 mph - N/A   Clear
4:45 PM 78.8 °F - 49.8 °F 36% 29.94 in 10.0 mi ENE 15.0 mph 18.4 mph N/A   Clear
5:05 PM 77.9 °F - 50.2 °F 38% 29.95 in 10.0 mi ENE 12.7 mph - N/A   Clear
5:25 PM 76.8 °F - 50.9 °F 40% 29.95 in 10.0 mi ENE 12.7 mph - N/A   Clear
5:45 PM 75.2 °F - 51.4 °F 43% 29.95 in 10.0 mi ENE 15.0 mph 18.4 mph N/A   Clear
6:05 PM 73.2 °F - 52.9 °F 49% 29.95 in 10.0 mi NE 11.5 mph 18.4 mph N/A   Clear
6:25 PM 71.8 °F - 53.2 °F 52% 29.95 in 10.0 mi ENE 10.4 mph - N/A   Clear
6:45 PM 70.2 °F - 53.6 °F 56% 29.96 in 10.0 mi ENE 12.7 mph - N/A   Clear
7:05 PM 69.8 °F - 54.5 °F 58% 29.96 in 10.0 mi ENE 13.8 mph - N/A   Clear
7:25 PM 69.3 °F - 54.1 °F 59% 29.96 in 10.0 mi East 16.1 mph - N/A   Clear
7:45 PM 68.0 °F - 53.6 °F 60% 29.97 in 10.0 mi East 11.5 mph 17.3 mph N/A   Clear
8:05 PM 68.0 °F - 53.6 °F 60% 29.97 in 10.0 mi ESE 15.0 mph 23.0 mph N/A   Clear
8:25 PM 67.6 °F - 53.6 °F 61% 29.97 in 10.0 mi ESE 16.1 mph 21.9 mph N/A   Clear
8:45 PM 67.1 °F - 53.4 °F 61% 29.98 in 10.0 mi ESE 12.7 mph - N/A   Clear
9:05 PM 66.6 °F - 53.4 °F 63% 29.98 in 10.0 mi SE 13.8 mph 20.7 mph N/A   Clear
9:25 PM 66.4 °F - 53.6 °F 63% 29.98 in 10.0 mi SE 16.1 mph - N/A   Clear
9:45 PM 65.8 °F - 53.8 °F 65% 29.98 in 10.0 mi SE 12.7 mph - N/A   Clear
10:05 PM 64.8 °F - 53.6 °F 67% 29.98 in 10.0 mi ESE 10.4 mph - N/A   Clear
10:25 PM 63.7 °F - 53.2 °F 69% 29.99 in 10.0 mi ESE 9.2 mph - N/A   Clear
10:45 PM 62.1 °F - 52.7 °F 71% 29.98 in 10.0 mi ESE 8.1 mph - N/A   Clear
11:05 PM 59.9 °F - 51.8 °F 75% 29.98 in 10.0 mi East 8.1 mph - N/A   Clear
11:25 PM 59.0 °F - 51.8 °F 77% 29.97 in 10.0 mi East 8.1 mph - N/A   Clear
11:45 PM 58.3 °F - 51.6 °F 78% 29.97 in 10.0 mi East 8.1 mph - N/A   Clear